Starlink 32322

operational
NORAD ID: 61720 Int'l Des: 2024-196 Owner: SPXS Country: US Constellation: starlink
LEOCIRCULAR

关于 Starlink 32322

正在加载描述...

实时位置

正在加载3D地球...

即将过境

高度历史

Altitude vs Time

uPlot chart will show altitude changes over time

两行轨道根数

1 61720U 24196P 25353.42741134 .00000507 00000-0 29259-4 0 9995
2 61720 53.1609 114.4696 0000925 91.8419 268.2687 15.30191755 64861
Epoch: Dec 19, 2025 • Age: 12 hours

当前状态

高度 479.7 km
速度 7.63 km/s
星下点 -15.51°S, 30.64°E
发射日期 Oct 30, 2024
运行时间 1.1 years
类型 internet

技术详情

分类 Payload
质量 730.00 kg
干质量 700.00 kg
总质量 730.00 kg
长度 0.30 m
直径 4.10 m
跨度 29.00 m
形状 Box + pan
制造商 SPXS
平台类型 Starlink V2M
阶段状态 In Orbit
所有者/国家 SPXS/US

大型星座

Loading constellations...